| time (UTC) | temp F | wind direction | speed knots | gust knots | rain 1hr in | rain 24hr in | rain mn in | humidity % | barometer mb |
| 20260507190000 | 56 | 355 | 7.0 | 20.9 | 0.00 | 0.16 | 0.00 | 38 | 1007.1 |
| 20260507185824 | 56 | 332 | 11.3 | 20.9 | 0.00 | 0.20 | 0.00 | 40 | 1007.1 |
| 20260507185739 | 56 | 350 | 9.6 | 20.9 | 0.00 | 0.20 | 0.00 | 40 | 1006.9 |
| 20260507185517 | 55 | 183 | 5.2 | 11.3 | 0.00 | 0.20 | 0.00 | 39 | 1006.9 |
| 20260507185440 | 55 | 322 | 5.2 | 12.2 | 0.00 | 0.20 | 0.00 | 38 | 1007.0 |
| 20260507185305 | 55 | 244 | 5.2 | 14.8 | 0.00 | 0.20 | 0.00 | 35 | 1007.0 |
| 20260507185235 | 55 | 304 | 7.0 | 14.8 | 0.00 | 0.20 | 0.00 | 35 | 1007.1 |
| 20260507185108 | 55 | 289 | 6.1 | 15.6 | 0.00 | 0.20 | 0.00 | 38 | 1007.1 |
| 20260507185031 | 55 | 292 | 5.2 | 15.6 | 0.00 | 0.20 | 0.00 | 37 | 1007.0 |
| 20260507184834 | 55 | 302 | 4.3 | 15.6 | 0.00 | 0.20 | 0.00 | 36 | 1007.0 |
| 20260507184756 | 55 | 313 | 5.2 | 15.6 | 0.00 | 0.20 | 0.00 | 37 | 1007.0 |
| 20260507184638 | 55 | 346 | 9.6 | 15.6 | 0.00 | 0.20 | 0.00 | 36 | 1007.1 |
| 20260507184601 | 55 | 288 | 9.6 | 15.6 | 0.00 | 0.20 | 0.00 | 36 | 1007.1 |
| 20260507184515 | 55 | 318 | 7.8 | 15.6 | 0.00 | 0.20 | 0.00 | 37 | 1007.2 |
| 20260507184326 | 55 | 294 | 3.5 | 12.2 | 0.00 | 0.20 | 0.00 | 43 | 1007.0 |
| 20260507184241 | 55 | 315 | 4.3 | 12.2 | 0.00 | 0.20 | 0.00 | 39 | 1007.1 |
| 20260507184033 | 55 | 323 | 6.1 | 12.2 | 0.00 | 0.20 | 0.00 | 39 | 1007.1 |
| 20260507183948 | 55 | 337 | 7.0 | 12.2 | 0.00 | 0.20 | 0.00 | 39 | 1007.1 |
| 20260507183817 | 55 | 186 | 6.1 | 12.2 | 0.00 | 0.20 | 0.00 | 37 | 1007.1 |
| 20260507183738 | 55 | 327 | 5.2 | 11.3 | 0.00 | 0.20 | 0.00 | 38 | 1007.1 |
| 20260507183542 | 55 | 217 | 4.3 | 12.2 | 0.00 | 0.20 | 0.00 | 37 | 1007.2 |
| 20260507183442 | 55 | 233 | 4.3 | 12.2 | 0.00 | 0.20 | 0.00 | 39 | 1007.2 |
| 20260507183325 | 55 | 178 | 7.0 | 12.2 | 0.00 | 0.20 | 0.00 | 37 | 1007.2 |
| 20260507183236 | 55 | 297 | 7.0 | 12.2 | 0.00 | 0.20 | 0.00 | 37 | 1007.2 |
| 20260507183140 | 55 | 316 | 6.1 | 12.2 | 0.00 | 0.20 | 0.00 | 36 | 1007.1 |
| 20260507183026 | 55 | 309 | 5.2 | 12.2 | 0.00 | 0.20 | 0.00 | 37 | 1007.1 |
| 20260507182948 | 55 | 255 | 5.2 | 12.2 | 0.00 | 0.20 | 0.00 | 38 | 1007.1 |
| 20260507182818 | 55 | 288 | 4.3 | 12.2 | 0.00 | 0.20 | 0.00 | 38 | 1007.1 |
| 20260507182740 | 55 | 283 | 4.3 | 12.2 | 0.00 | 0.20 | 0.00 | 37 | 1007.1 |
| 20260507182543 | 55 | 289 | 4.3 | 11.3 | 0.00 | 0.20 | 0.00 | 38 | 1007.2 |
| 20260507182505 | 55 | 327 | 5.2 | 11.3 | 0.00 | 0.20 | 0.00 | 37 | 1007.3 |
| 20260507182408 | 55 | 271 | 4.3 | 11.3 | 0.00 | 0.20 | 0.00 | 39 | 1007.3 |
| 20260507182330 | 55 | 279 | 4.3 | 11.3 | 0.00 | 0.20 | 0.00 | 39 | 1007.2 |
| 20260507182134 | 55 | 309 | 7.0 | 12.2 | 0.00 | 0.20 | 0.00 | 38 | 1007.2 |
| 20260507182036 | 55 | 315 | 5.2 | 15.6 | 0.00 | 0.20 | 0.00 | 39 | 1007.2 |
| 20260507181944 | 55 | 271 | 5.2 | 15.6 | 0.00 | 0.20 | 0.00 | 42 | 1007.1 |
| 20260507181824 | 55 | 293 | 6.1 | 15.6 | 0.00 | 0.20 | 0.00 | 40 | 1007.1 |
| 20260507181627 | 55 | 255 | 5.2 | 15.6 | 0.00 | 0.20 | 0.00 | 38 | 1007.2 |
| 20260507181530 | 55 | 188 | 4.3 | 15.6 | 0.00 | 0.20 | 0.00 | 42 | 1007.2 |
| 20260507181431 | 55 | 256 | 6.1 | 15.6 | 0.00 | 0.20 | 0.00 | 39 | 1007.3 |
| 20260507181332 | 55 | 272 | 7.0 | 15.6 | 0.00 | 0.20 | 0.00 | 38 | 1007.3 |
| 20260507181136 | 55 | 279 | 7.8 | 15.6 | 0.00 | 0.20 | 0.00 | 37 | 1007.2 |
| 20260507181038 | 55 | 213 | 5.2 | 13.0 | 0.00 | 0.20 | 0.00 | 40 | 1007.3 |
| 20260507180925 | 55 | 214 | 5.2 | 13.0 | 0.00 | 0.20 | 0.00 | 37 | 1007.3 |
| 20260507180848 | 55 | 301 | 6.1 | 13.0 | 0.00 | 0.20 | 0.00 | 38 | 1007.3 |
| 20260507180748 | 55 | 277 | 7.0 | 13.0 | 0.00 | 0.20 | 0.00 | 39 | 1007.4 |
| 20260507180632 | 55 | 286 | 7.8 | 13.0 | 0.00 | 0.20 | 0.00 | 39 | 1007.5 |
| 20260507180554 | 55 | 28 | 7.8 | 13.0 | 0.00 | 0.20 | 0.00 | 40 | 1007.5 |
| 20260507180437 | 55 | 317 | 7.8 | 13.0 | 0.00 | 0.20 | 0.00 | 40 | 1007.4 |
| 20260507180400 | 55 | 315 | 7.0 | 13.0 | 0.00 | 0.20 | 0.00 | 40 | 1007.4 |
| 20260507180302 | 55 | 327 | 7.0 | 12.2 | 0.00 | 0.20 | 0.00 | 39 | 1007.4 |
| 20260507180206 | 55 | 241 | 6.1 | 13.0 | 0.00 | 0.20 | 0.00 | 39 | 1007.4 |
| 20260507180128 | 55 | 207 | 4.3 | 13.0 | 0.00 | 0.20 | 0.00 | 39 | 1007.4 |
| 20260507175932 | 55 | 355 | 3.5 | 13.0 | 0.00 | 0.26 | 0.00 | 40 | 1007.4 |
| 20260507175838 | 55 | 187 | 5.2 | 13.9 | 0.00 | 0.26 | 0.00 | 39 | 1007.4 |
| 20260507175721 | 54 | 264 | 7.0 | 13.9 | 0.00 | 0.26 | 0.00 | 39 | 1007.5 |
| 20260507175645 | 54 | 265 | 7.0 | 13.9 | 0.00 | 0.26 | 0.00 | 40 | 1007.5 |
| 20260507175606 | 54 | 333 | 7.0 | 13.9 | 0.00 | 0.26 | 0.00 | 38 | 1007.3 |
| 20260507175523 | 54 | 307 | 7.8 | 13.9 | 0.00 | 0.26 | 0.00 | 38 | 1007.4 |
| 20260507175444 | 54 | 315 | 7.0 | 13.9 | 0.00 | 0.26 | 0.00 | 39 | 1007.4 |
| 20260507175315 | 54 | 298 | 7.8 | 13.9 | 0.00 | 0.26 | 0.00 | 39 | 1007.5 |
| 20260507175231 | 54 | 243 | 8.7 | 13.9 | 0.00 | 0.26 | 0.00 | 38 | 1007.4 |
| 20260507175041 | 55 | 341 | 6.1 | 13.0 | 0.00 | 0.26 | 0.00 | 40 | 1007.4 |
| 20260507174956 | 55 | 119 | 5.2 | 13.0 | 0.00 | 0.26 | 0.00 | 39 | 1007.4 |
| 20260507174830 | 55 | 286 | 5.2 | 13.0 | 0.00 | 0.26 | 0.00 | 39 | 1007.4 |
| 20260507174730 | 55 | 273 | 7.0 | 13.0 | 0.00 | 0.26 | 0.00 | 39 | 1007.3 |
| 20260507174601 | 55 | 336 | 7.0 | 10.4 | 0.00 | 0.26 | 0.00 | 41 | 1007.4 |
| 20260507174434 | 55 | 288 | 6.1 | 13.9 | 0.00 | 0.26 | 0.00 | 39 | 1007.4 |
| 20260507174356 | 55 | 320 | 6.1 | 13.9 | 0.00 | 0.26 | 0.00 | 41 | 1007.4 |
| 20260507174300 | 55 | 256 | 6.1 | 13.9 | 0.00 | 0.26 | 0.00 | 39 | 1007.5 |
| 20260507174220 | 55 | 238 | 6.1 | 13.9 | 0.00 | 0.26 | 0.00 | 42 | 1007.5 |
| 20260507174051 | 55 | 196 | 6.1 | 13.9 | 0.00 | 0.26 | 0.00 | 38 | 1007.4 |
| 20260507173915 | 55 | 221 | 5.2 | 13.9 | 0.00 | 0.26 | 0.00 | 40 | 1007.3 |
| 20260507173829 | 55 | 157 | 2.6 | 13.9 | 0.00 | 0.26 | 0.00 | 39 | 1007.4 |
| 20260507173756 | 55 | 292 | 4.3 | 13.9 | 0.00 | 0.26 | 0.00 | 39 | 1007.4 |
| 20260507173717 | 55 | 318 | 3.5 | 13.9 | 0.00 | 0.26 | 0.00 | 40 | 1007.4 |
| 20260507173541 | 55 | 286 | 3.5 | 13.9 | 0.00 | 0.26 | 0.00 | 42 | 1007.5 |
| 20260507173444 | 54 | 188 | 5.2 | 13.9 | 0.00 | 0.26 | 0.00 | 39 | 1007.5 |
| 20260507173349 | 54 | 267 | 6.1 | 13.9 | 0.00 | 0.26 | 0.00 | 42 | 1007.5 |
| 20260507173230 | 54 | 234 | 7.0 | 13.9 | 0.00 | 0.26 | 0.00 | 42 | 1007.5 |
| 20260507173131 | 54 | 263 | 6.1 | 13.9 | 0.00 | 0.26 | 0.00 | 41 | 1007.4 |
| 20260507173054 | 54 | 273 | 4.3 | 13.9 | 0.00 | 0.26 | 0.00 | 40 | 1007.4 |
| 20260507173016 | 54 | 326 | 3.5 | 13.9 | 0.00 | 0.26 | 0.00 | 40 | 1007.5 |
| 20260507172840 | 54 | 247 | 6.1 | 13.9 | 0.00 | 0.26 | 0.00 | 38 | 1007.5 |
| 20260507172725 | 54 | 220 | 5.2 | 13.9 | 0.00 | 0.26 | 0.00 | 38 | 1007.5 |
| 20260507172628 | 54 | 9 | 4.3 | 13.9 | 0.00 | 0.26 | 0.00 | 42 | 1007.5 |
| 20260507172550 | 54 | 310 | 4.3 | 13.9 | 0.00 | 0.26 | 0.00 | 40 | 1007.5 |
| 20260507172512 | 54 | 190 | 5.2 | 13.9 | 0.00 | 0.26 | 0.00 | 42 | 1007.6 |
| 20260507172415 | 54 | 283 | 7.0 | 13.9 | 0.00 | 0.26 | 0.00 | 39 | 1007.6 |
| 20260507172316 | 54 | 282 | 6.1 | 12.2 | 0.00 | 0.26 | 0.00 | 41 | 1007.6 |
| 20260507172217 | 54 | 310 | 4.3 | 12.2 | 0.00 | 0.26 | 0.00 | 44 | 1007.5 |
| 20260507172121 | 54 | 292 | 4.3 | 12.2 | 0.00 | 0.26 | 0.00 | 43 | 1007.5 |
| 20260507172044 | 54 | 332 | 3.5 | 12.2 | 0.00 | 0.26 | 0.00 | 40 | 1007.5 |
| 20260507171913 | 54 | 205 | 4.3 | 12.2 | 0.00 | 0.26 | 0.00 | 41 | 1007.4 |
| 20260507171828 | 54 | 234 | 5.2 | 12.2 | 0.00 | 0.26 | 0.00 | 42 | 1007.5 |
| 20260507171641 | 54 | 321 | 6.1 | 12.2 | 0.00 | 0.26 | 0.00 | 40 | 1007.5 |
| 20260507171605 | 55 | 253 | 5.2 | 12.2 | 0.00 | 0.26 | 0.00 | 42 | 1007.5 |
| 20260507171439 | 54 | 235 | 4.3 | 11.3 | 0.00 | 0.26 | 0.00 | 42 | 1007.5 |
| 20260507171324 | 54 | 292 | 4.3 | 15.6 | 0.00 | 0.26 | 0.00 | 41 | 1007.6 |
| 20260507171245 | 54 | 242 | 4.3 | 15.6 | 0.00 | 0.26 | 0.00 | 41 | 1007.6 |
| 20260507171117 | 54 | 248 | 2.6 | 15.6 | 0.00 | 0.26 | 0.00 | 42 | 1007.5 |
| 20260507171031 | 54 | 171 | 2.6 | 15.6 | 0.00 | 0.26 | 0.00 | 44 | 1007.6 |
| 20260507170841 | 54 | 244 | 5.2 | 15.6 | 0.00 | 0.26 | 0.00 | 41 | 1007.6 |
| 20260507170756 | 54 | 215 | 6.1 | 15.6 | 0.00 | 0.26 | 0.00 | 41 | 1007.6 |
| 20260507170605 | 54 | 269 | 10.4 | 15.6 | 0.00 | 0.26 | 0.00 | 41 | 1007.6 |
| 20260507170531 | 54 | 200 | 9.6 | 16.5 | 0.00 | 0.26 | 0.00 | 40 | 1007.6 |
| 20260507170333 | 54 | 263 | 7.0 | 15.6 | 0.00 | 0.26 | 0.00 | 43 | 1007.7 |
| 20260507170255 | 54 | 188 | 5.2 | 15.6 | 0.00 | 0.26 | 0.00 | 42 | 1007.7 |
| 20260507170138 | 54 | 226 | 4.3 | 15.6 | 0.00 | 0.26 | 0.00 | 43 | 1007.7 |
| 20260507170059 | 54 | 242 | 4.3 | 15.6 | 0.00 | 0.26 | 0.00 | 39 | 1007.7 |
| 20260507170013 | 54 | 215 | 7.0 | 15.6 | 0.00 | 0.26 | 0.00 | 40 | 1007.7 |
| 20260507165800 | 54 | 209 | 5.2 | 15.6 | 0.00 | 0.34 | 0.00 | 44 | 1007.7 |
| 20260507165722 | 54 | 189 | 4.3 | 10.4 | 0.00 | 0.34 | 0.00 | 44 | 1007.7 |
| 20260507165552 | 54 | 204 | 3.5 | 10.4 | 0.00 | 0.34 | 0.00 | 45 | 1007.6 |
| 20260507165426 | 54 | 136 | 3.5 | 9.6 | 0.00 | 0.34 | 0.00 | 42 | 1007.6 |
| 20260507165353 | 54 | 213 | 3.5 | 9.6 | 0.00 | 0.34 | 0.00 | 42 | 1007.6 |
| 20260507165245 | 54 | 214 | 4.3 | 8.7 | 0.00 | 0.34 | 0.00 | 43 | 1007.8 |
| 20260507165056 | 54 | 226 | 4.3 | 8.7 | 0.00 | 0.34 | 0.00 | 45 | 1007.7 |
| 20260507164928 | 54 | 179 | 5.2 | 13.0 | 0.00 | 0.34 | 0.00 | 41 | 1007.8 |
| 20260507164831 | 54 | 206 | 4.3 | 13.0 | 0.00 | 0.34 | 0.00 | 41 | 1007.9 |
| 20260507164737 | 54 | 148 | 3.5 | 13.0 | 0.00 | 0.34 | 0.00 | 43 | 1007.8 |
| 20260507164631 | 54 | 207 | 4.3 | 13.0 | 0.00 | 0.34 | 0.00 | 43 | 1007.9 |
| 20260507164551 | 54 | 268 | 5.2 | 13.0 | 0.00 | 0.34 | 0.00 | 44 | 1008.0 |
| 20260507164454 | 54 | 186 | 3.5 | 13.0 | 0.00 | 0.34 | 0.00 | 44 | 1008.0 |
| 20260507164340 | 53 | 178 | 4.3 | 13.0 | 0.00 | 0.34 | 0.00 | 44 | 1007.9 |
| 20260507164244 | 53 | 213 | 7.0 | 13.0 | 0.00 | 0.34 | 0.00 | 43 | 1007.9 |
| 20260507164137 | 53 | 314 | 7.0 | 13.0 | 0.00 | 0.34 | 0.00 | 44 | 1008.0 |
| 20260507164101 | 53 | 327 | 5.2 | 13.0 | 0.00 | 0.34 | 0.00 | 44 | 1008.0 |
| 20260507164006 | 53 | 248 | 3.5 | 12.2 | 0.00 | 0.34 | 0.00 | 46 | 1007.9 |
| 20260507163929 | 53 | 299 | 2.6 | 12.2 | 0.00 | 0.34 | 0.00 | 46 | 1007.9 |
| 20260507163732 | 53 | 348 | 1.7 | 12.2 | 0.00 | 0.34 | 0.00 | 44 | 1008.0 |
| 20260507163633 | 53 | 312 | 2.6 | 12.2 | 0.00 | 0.34 | 0.00 | 46 | 1008.0 |
| 20260507163540 | 53 | 311 | 4.3 | 12.2 | 0.00 | 0.34 | 0.00 | 43 | 1008.0 |
| 20260507163444 | 53 | 302 | 5.2 | 12.2 | 0.00 | 0.34 | 0.00 | 44 | 1008.0 |
| 20260507163358 | 53 | 319 | 4.3 | 11.3 | 0.00 | 0.34 | 0.00 | 43 | 1008.2 |
| 20260507163207 | 53 | 293 | 2.6 | 13.9 | 0.00 | 0.34 | 0.00 | 45 | 1008.1 |
| 20260507163129 | 52 | 254 | 2.6 | 13.9 | 0.00 | 0.34 | 0.00 | 45 | 1008.1 |
| 20260507162932 | 52 | 302 | 6.1 | 13.9 | 0.00 | 0.34 | 0.00 | 42 | 1008.2 |
| 20260507162854 | 52 | 297 | 6.1 | 13.9 | 0.00 | 0.34 | 0.00 | 41 | 1008.2 |
| 20260507162737 | 52 | 288 | 7.0 | 13.9 | 0.00 | 0.34 | 0.00 | 41 | 1008.1 |
| 20260507162659 | 52 | 331 | 6.1 | 13.9 | 0.00 | 0.34 | 0.00 | 42 | 1008.1 |
| 20260507162613 | 53 | 331 | 6.1 | 13.9 | 0.00 | 0.34 | 0.00 | 41 | 1008.2 |
| 20260507162438 | 53 | 287 | 8.7 | 13.9 | 0.00 | 0.34 | 0.00 | 44 | 1008.3 |
| 20260507162402 | 53 | 311 | 7.8 | 13.0 | 0.00 | 0.34 | 0.00 | 44 | 1008.3 |
| 20260507162317 | 53 | 290 | 7.8 | 13.0 | 0.00 | 0.34 | 0.00 | 44 | 1008.4 |
| 20260507162128 | 53 | 168 | 6.1 | 12.2 | 0.00 | 0.34 | 0.00 | 43 | 1008.2 |
| 20260507162023 | 53 | 241 | 8.7 | 12.2 | 0.00 | 0.34 | 0.00 | 41 | 1008.2 |
| 20260507161946 | 53 | 164 | 7.0 | 12.2 | 0.00 | 0.34 | 0.00 | 41 | 1008.2 |
| 20260507161830 | 53 | 216 | 4.3 | 12.2 | 0.00 | 0.34 | 0.00 | 45 | 1008.3 |
| 20260507161740 | 52 | 215 | 4.3 | 12.2 | 0.00 | 0.34 | 0.00 | 45 | 1008.3 |
| 20260507161622 | 52 | 182 | 3.5 | 12.2 | 0.00 | 0.34 | 0.00 | 46 | 1008.3 |
| 20260507161547 | 52 | 232 | 4.3 | 12.2 | 0.00 | 0.34 | 0.00 | 44 | 1008.3 |
| 20260507161417 | 52 | 307 | 4.3 | 12.2 | 0.00 | 0.34 | 0.00 | 44 | 1008.4 |
| 20260507161311 | 52 | 264 | 4.3 | 13.9 | 0.00 | 0.34 | 0.00 | 44 | 1008.4 |
| 20260507161130 | 52 | 327 | 7.0 | 13.9 | 0.00 | 0.34 | 0.00 | 43 | 1008.4 |
| 20260507161045 | 52 | 341 | 6.1 | 16.5 | 0.00 | 0.34 | 0.00 | 45 | 1008.4 |
| 20260507160916 | 52 | 229 | 5.2 | 16.5 | 0.00 | 0.34 | 0.00 | 41 | 1008.3 |
| 20260507160837 | 52 | 284 | 6.1 | 16.5 | 0.00 | 0.34 | 0.00 | 41 | 1008.4 |
| 20260507160640 | 52 | 263 | 5.2 | 16.5 | 0.00 | 0.34 | 0.00 | 43 | 1008.4 |
| 20260507160544 | 52 | 335 | 7.0 | 16.5 | 0.00 | 0.34 | 0.00 | 43 | 1008.4 |
| 20260507160429 | 52 | 250 | 6.1 | 16.5 | 0.00 | 0.34 | 0.00 | 45 | 1008.5 |
| 20260507160353 | 52 | 329 | 7.0 | 16.5 | 0.00 | 0.34 | 0.00 | 43 | 1008.5 |
| 20260507160308 | 52 | 289 | 7.8 | 16.5 | 0.00 | 0.34 | 0.00 | 43 | 1008.5 |
| 20260507160118 | 52 | 325 | 5.2 | 14.8 | 0.00 | 0.34 | 0.00 | 44 | 1008.5 |
| 20260507160040 | 52 | 199 | 6.1 | 14.8 | 0.00 | 0.34 | 0.00 | 44 | 1008.5 |
| 20260507155843 | 52 | 300 | 7.0 | 14.8 | 0.00 | 0.45 | 0.00 | 42 | 1008.5 |
| 20260507155804 | 52 | 286 | 7.8 | 14.8 | 0.00 | 0.45 | 0.00 | 43 | 1008.6 |
| 20260507155707 | 52 | 332 | 5.2 | 14.8 | 0.00 | 0.45 | 0.00 | 46 | 1008.7 |
| 20260507155629 | 53 | 298 | 3.5 | 12.2 | 0.00 | 0.45 | 0.00 | 45 | 1008.7 |
| 20260507155434 | 52 | 240 | 1.7 | 9.6 | 0.00 | 0.45 | 0.00 | 45 | 1008.7 |
| 20260507155340 | 52 | 163 | 0.9 | 13.9 | 0.00 | 0.45 | 0.00 | 46 | 1008.8 |
| 20260507155224 | 52 | 225 | 2.6 | 13.9 | 0.00 | 0.45 | 0.00 | 49 | 1008.7 |
| 20260507155147 | 52 | 292 | 2.6 | 13.9 | 0.00 | 0.45 | 0.00 | 47 | 1008.8 |
| 20260507154935 | 52 | 244 | 5.2 | 13.9 | 0.00 | 0.45 | 0.00 | 43 | 1008.9 |
| 20260507154847 | 52 | 219 | 5.2 | 13.9 | 0.00 | 0.45 | 0.00 | 46 | 1008.9 |
| 20260507154718 | 52 | 196 | 3.5 | 13.9 | 0.00 | 0.45 | 0.00 | 44 | 1008.9 |
| 20260507154619 | 52 | 51 | 6.1 | 13.9 | 0.00 | 0.45 | 0.00 | 44 | 1008.9 |
| 20260507154523 | 52 | 162 | 7.8 | 13.9 | 0.00 | 0.45 | 0.00 | 43 | 1008.8 |
| 20260507154445 | 52 | 190 | 6.1 | 10.4 | 0.00 | 0.45 | 0.00 | 45 | 1008.9 |
| 20260507154235 | 52 | 220 | 5.2 | 12.2 | 0.00 | 0.45 | 0.00 | 46 | 1008.9 |
| 20260507154148 | 52 | 293 | 5.2 | 12.2 | 0.00 | 0.45 | 0.00 | 46 | 1008.9 |
| 20260507154054 | 52 | 254 | 6.1 | 12.2 | 0.00 | 0.45 | 0.00 | 48 | 1008.9 |
| 20260507154016 | 52 | 155 | 5.2 | 12.2 | 0.00 | 0.45 | 0.00 | 46 | 1008.8 |
| 20260507153931 | 52 | 283 | 5.2 | 12.2 | 0.00 | 0.45 | 0.00 | 46 | 1008.9 |
| 20260507153749 | 51 | 307 | 4.3 | 10.4 | 0.00 | 0.45 | 0.00 | 45 | 1009.0 |
| 20260507153650 | 51 | 306 | 3.5 | 10.4 | 0.00 | 0.45 | 0.00 | 44 | 1009.0 |
| 20260507153534 | 52 | 284 | 4.3 | 10.4 | 0.00 | 0.45 | 0.00 | 45 | 1009.0 |
| 20260507153456 | 52 | 279 | 4.3 | 10.4 | 0.00 | 0.45 | 0.00 | 44 | 1009.0 |
| 20260507153237 | 52 | 313 | 5.2 | 10.4 | 0.00 | 0.45 | 0.00 | 45 | 1009.0 |
| 20260507153159 | 52 | 189 | 4.3 | 9.6 | 0.00 | 0.45 | 0.00 | 45 | 1009.0 |
| 20260507153043 | 52 | 286 | 4.3 | 9.6 | 0.00 | 0.45 | 0.00 | 47 | 1008.9 |
| 20260507152950 | 52 | 281 | 4.3 | 9.6 | 0.00 | 0.45 | 0.00 | 49 | 1008.9 |
| 20260507152913 | 52 | 308 | 3.5 | 8.7 | 0.00 | 0.45 | 0.00 | 47 | 1008.9 |
| 20260507152815 | 52 | 341 | 4.3 | 7.8 | 0.00 | 0.45 | 0.00 | 45 | 1008.9 |
| 20260507152737 | 52 | 327 | 4.3 | 7.8 | 0.00 | 0.45 | 0.00 | 45 | 1008.9 |
| 20260507152618 | 52 | 333 | 3.5 | 10.4 | 0.00 | 0.45 | 0.00 | 47 | 1009.0 |
| 20260507152534 | 52 | 325 | 4.3 | 10.4 | 0.00 | 0.45 | 0.00 | 48 | 1009.0 |
| 20260507152404 | 51 | 174 | 3.5 | 14.8 | 0.00 | 0.45 | 0.00 | 49 | 1009.0 |
| 20260507152327 | 51 | 254 | 2.6 | 14.8 | 0.00 | 0.45 | 0.00 | 49 | 1008.9 |
| 20260507152129 | 51 | 284 | 1.7 | 14.8 | 0.00 | 0.45 | 0.00 | 50 | 1008.8 |
| 20260507152051 | 51 | 313 | 1.7 | 14.8 | 0.00 | 0.45 | 0.00 | 50 | 1008.8 |
| 20260507151955 | 51 | 61 | 3.5 | 14.8 | 0.00 | 0.45 | 0.00 | 49 | 1008.9 |
| 20260507151855 | 51 | 328 | 4.3 | 14.8 | 0.00 | 0.45 | 0.00 | 47 | 1008.9 |
| 20260507151743 | 51 | 355 | 5.2 | 14.8 | 0.00 | 0.45 | 0.00 | 47 | 1008.9 |
| 20260507151655 | 51 | 264 | 7.8 | 14.8 | 0.00 | 0.45 | 0.00 | 47 | 1008.8 |
| 20260507151555 | 51 | 225 | 7.0 | 13.0 | 0.00 | 0.45 | 0.00 | 46 | 1008.9 |
| 20260507151458 | 51 | 306 | 5.2 | 13.0 | 0.00 | 0.45 | 0.00 | 48 | 1008.9 |
| 20260507151400 | 51 | 338 | 4.3 | 13.0 | 0.00 | 0.45 | 0.00 | 48 | 1008.9 |
| 20260507151302 | 51 | 244 | 4.3 | 13.0 | 0.00 | 0.45 | 0.00 | 50 | 1008.9 |
| 20260507151225 | 51 | 299 | 3.5 | 13.0 | 0.00 | 0.45 | 0.00 | 50 | 1008.9 |
| 20260507151027 | 51 | 296 | 6.1 | 13.0 | 0.00 | 0.45 | 0.00 | 48 | 1008.9 |
| 20260507150949 | 51 | 194 | 7.0 | 13.0 | 0.00 | 0.45 | 0.00 | 48 | 1008.9 |
| 20260507150854 | 51 | 228 | 7.8 | 13.0 | 0.00 | 0.45 | 0.00 | 47 | 1008.8 |
| 20260507150816 | 51 | 178 | 4.3 | 10.4 | 0.00 | 0.45 | 0.00 | 49 | 1008.9 |
| 20260507150651 | 50 | 336 | 4.3 | 10.4 | 0.00 | 0.45 | 0.00 | 48 | 1008.9 |
| 20260507150543 | 50 | 235 | 5.2 | 10.4 | 0.00 | 0.45 | 0.00 | 49 | 1009.0 |
| 20260507150352 | 50 | 281 | 3.5 | 10.4 | 0.00 | 0.45 | 0.00 | 50 | 1008.8 |
| 20260507150251 | 50 | 207 | 3.5 | 10.4 | 0.00 | 0.45 | 0.00 | 50 | 1008.8 |
| 20260507150122 | 50 | 189 | 7.0 | 16.5 | 0.00 | 0.45 | 0.00 | 47 | 1008.9 |
| 20260507150036 | 50 | 206 | 7.0 | 16.5 | 0.00 | 0.45 | 0.00 | 48 | 1008.9 |
| 20260507145906 | 50 | 171 | 6.1 | 16.5 | 0.00 | 0.53 | 0.00 | 48 | 1008.9 |
| 20260507145829 | 50 | 193 | 6.1 | 16.5 | 0.00 | 0.53 | 0.00 | 48 | 1008.9 |
| 20260507145631 | 50 | 167 | 6.1 | 16.5 | 0.00 | 0.53 | 0.00 | 47 | 1008.9 |
| 20260507145553 | 50 | 238 | 6.1 | 16.5 | 0.00 | 0.53 | 0.00 | 47 | 1008.9 |
| 20260507145456 | 50 | 226 | 7.8 | 16.5 | 0.00 | 0.53 | 0.00 | 47 | 1008.9 |
| 20260507145341 | 50 | 188 | 8.7 | 16.5 | 0.00 | 0.53 | 0.00 | 47 | 1008.9 |
| 20260507145223 | 50 | 214 | 6.1 | 11.3 | 0.00 | 0.53 | 0.00 | 47 | 1008.9 |
| 20260507145147 | 50 | 225 | 5.2 | 11.3 | 0.00 | 0.53 | 0.00 | 47 | 1008.9 |
| 20260507145101 | 50 | 180 | 4.3 | 11.3 | 0.00 | 0.53 | 0.00 | 47 | 1008.9 |
| 20260507144930 | 50 | 235 | 5.2 | 11.3 | 0.00 | 0.53 | 0.00 | 49 | 1009.1 |
| 20260507144832 | 50 | 277 | 6.1 | 11.3 | 0.00 | 0.53 | 0.00 | 49 | 1009.0 |
| 20260507144636 | 50 | 213 | 4.3 | 13.0 | 0.00 | 0.53 | 0.00 | 50 | 1008.9 |
| 20260507144538 | 50 | 238 | 4.3 | 13.0 | 0.00 | 0.53 | 0.00 | 50 | 1008.9 |
| 20260507144440 | 50 | 300 | 6.1 | 13.0 | 0.00 | 0.53 | 0.00 | 50 | 1008.8 |
| 20260507144401 | 50 | 215 | 7.0 | 13.0 | 0.00 | 0.53 | 0.00 | 50 | 1008.8 |
| 20260507144236 | 50 | 333 | 5.2 | 8.7 | 0.00 | 0.53 | 0.00 | 48 | 1009.0 |
| 20260507144130 | 50 | 290 | 4.3 | 8.7 | 0.00 | 0.53 | 0.00 | 49 | 1008.9 |
| 20260507143940 | 50 | 220 | 2.6 | 9.6 | 0.00 | 0.53 | 0.00 | 49 | 1009.0 |
| 20260507143834 | 49 | 309 | 3.5 | 9.6 | 0.00 | 0.53 | 0.00 | 49 | 1009.0 |
| 20260507143644 | 49 | 293 | 5.2 | 12.2 | 0.00 | 0.53 | 0.00 | 49 | 1009.0 |
| 20260507143559 | 49 | 303 | 4.3 | 12.2 | 0.00 | 0.53 | 0.00 | 50 | 1009.0 |
| 20260507143429 | 49 | 271 | 3.5 | 12.2 | 0.00 | 0.53 | 0.00 | 48 | 1009.0 |
| 20260507143330 | 49 | 314 | 4.3 | 12.2 | 0.00 | 0.53 | 0.00 | 48 | 1009.0 |
| 20260507143201 | 49 | 321 | 4.3 | 12.2 | 0.00 | 0.53 | 0.00 | 49 | 1008.9 |
| 20260507143033 | 49 | 261 | 4.3 | 12.2 | 0.00 | 0.53 | 0.00 | 49 | 1008.9 |
| 20260507143001 | 49 | 197 | 3.5 | 12.2 | 0.00 | 0.53 | 0.00 | 48 | 1008.9 |
| 20260507142825 | 49 | 313 | 2.6 | 7.8 | 0.00 | 0.53 | 0.00 | 48 | 1009.0 |
| 20260507142739 | 49 | 227 | 3.5 | 7.8 | 0.00 | 0.53 | 0.00 | 48 | 1009.0 |
| 20260507142608 | 49 | 232 | 3.5 | 7.8 | 0.00 | 0.53 | 0.00 | 49 | 1009.0 |
| 20260507142530 | 49 | 283 | 3.5 | 7.8 | 0.00 | 0.53 | 0.00 | 48 | 1009.0 |
| 20260507142333 | 49 | 317 | 2.6 | 7.8 | 0.00 | 0.53 | 0.00 | 49 | 1009.1 |
| 20260507142257 | 49 | 266 | 3.5 | 7.8 | 0.00 | 0.53 | 0.00 | 48 | 1009.1 |
| 20260507142201 | 49 | 263 | 2.6 | 7.8 | 0.00 | 0.53 | 0.00 | 48 | 1009.1 |
| 20260507142123 | 49 | 234 | 2.6 | 7.8 | 0.00 | 0.53 | 0.00 | 48 | 1009.2 |
| 20260507141939 | 49 | 253 | 4.3 | 7.8 | 0.00 | 0.53 | 0.00 | 48 | 1009.1 |
| 20260507141833 | 49 | 287 | 3.5 | 7.8 | 0.00 | 0.53 | 0.00 | 48 | 1009.1 |
| 20260507141716 | 49 | 360 | 2.6 | 7.0 | 0.00 | 0.53 | 0.00 | 47 | 1009.1 |
| 20260507141649 | 49 | 288 | 3.5 | 7.8 | 0.00 | 0.53 | 0.00 | 47 | 1009.1 |
| 20260507141612 | 49 | 315 | 4.3 | 7.8 | 0.00 | 0.53 | 0.00 | 48 | 1009.1 |
| 20260507141515 | 49 | 329 | 2.6 | 8.7 | 0.00 | 0.53 | 0.00 | 48 | 1009.0 |
| 20260507141416 | 49 | 325 | 2.6 | 8.7 | 0.00 | 0.53 | 0.00 | 48 | 1009.1 |
| 20260507141339 | 49 | 271 | 3.5 | 8.7 | 0.00 | 0.53 | 0.00 | 47 | 1009.1 |
| 20260507141219 | 49 | 322 | 3.5 | 8.7 | 0.00 | 0.53 | 0.00 | 47 | 1009.1 |
| 20260507141141 | 49 | 302 | 3.5 | 8.7 | 0.00 | 0.53 | 0.00 | 47 | 1009.1 |
| 20260507141011 | 49 | 238 | 3.5 | 8.7 | 0.00 | 0.53 | 0.00 | 47 | 1009.1 |
| 20260507140916 | 49 | 237 | 3.5 | 8.7 | 0.00 | 0.53 | 0.00 | 47 | 1009.0 |
| 20260507140740 | 48 | 263 | 4.3 | 8.7 | 0.00 | 0.53 | 0.00 | 47 | 1009.0 |
| 20260507140640 | 48 | 231 | 2.6 | 10.4 | 0.00 | 0.53 | 0.00 | 47 | 1009.1 |
| 20260507140522 | 48 | 310 | 1.7 | 9.6 | 0.00 | 0.53 | 0.00 | 47 | 1009.1 |
| 20260507140446 | 48 | 264 | 1.7 | 9.6 | 0.00 | 0.53 | 0.00 | 47 | 1009.1 |
| 20260507140341 | 48 | 260 | 2.6 | 9.6 | 0.00 | 0.53 | 0.00 | 48 | 1009.1 |
| 20260507140223 | 48 | 240 | 3.5 | 9.6 | 0.00 | 0.53 | 0.00 | 47 | 1009.2 |
| 20260507140146 | 48 | 242 | 2.6 | 9.6 | 0.00 | 0.53 | 0.00 | 47 | 1009.2 |
| 20260507140108 | 48 | 231 | 3.5 | 9.6 | 0.00 | 0.53 | 0.00 | 47 | 1009.1 |
| 20260507140037 | 48 | 265 | 3.5 | 9.6 | 0.00 | 0.53 | 0.00 | 47 | 1009.1 |
| 20260507135918 | 48 | 301 | 4.3 | 9.6 | 0.00 | 0.59 | 0.00 | 47 | 1009.1 |
| 20260507135840 | 48 | 269 | 5.2 | 9.6 | 0.00 | 0.59 | 0.00 | 47 | 1009.1 |
| 20260507135701 | 48 | 287 | 4.3 | 9.6 | 0.00 | 0.59 | 0.00 | 46 | 1009.1 |
| 20260507135636 | 48 | 304 | 4.3 | 8.7 | 0.00 | 0.59 | 0.00 | 46 | 1009.1 |
| 20260507135506 | 48 | 342 | 3.5 | 8.7 | 0.00 | 0.59 | 0.00 | 45 | 1009.1 |
| 20260507135428 | 48 | 319 | 2.6 | 7.8 | 0.00 | 0.59 | 0.00 | 45 | 1009.1 |
| 20260507135229 | 48 | 252 | 2.6 | 8.7 | 0.00 | 0.59 | 0.00 | 44 | 1009.1 |
| 20260507135153 | 48 | 262 | 2.6 | 8.7 | 0.00 | 0.59 | 0.00 | 40 | 1009.1 |
| 20260507135036 | 48 | 304 | 2.6 | 8.7 | 0.00 | 0.59 | 0.00 | 44 | 1009.1 |
| 20260507135000 | 48 | 223 | 3.5 | 8.7 | 0.00 | 0.59 | 0.00 | 44 | 1009.1 |
| 20260507134918 | 48 | 200 | 3.5 | 8.7 | 0.00 | 0.59 | 0.00 | 44 | 1009.2 |
| 20260507134727 | 48 | 275 | 4.3 | 8.7 | 0.00 | 0.59 | 0.00 | 43 | 1009.2 |
| 20260507134642 | 48 | 290 | 5.2 | 8.7 | 0.00 | 0.59 | 0.00 | 43 | 1009.2 |
| 20260507134545 | 48 | 252 | 5.2 | 8.7 | 0.00 | 0.59 | 0.00 | 44 | 1009.2 |
| 20260507134427 | 48 | 312 | 4.3 | 7.8 | 0.00 | 0.59 | 0.00 | 43 | 1009.2 |
| 20260507134351 | 48 | 271 | 4.3 | 7.8 | 0.00 | 0.59 | 0.00 | 43 | 1009.2 |
| 20260507134304 | 48 | 296 | 4.3 | 7.0 | 0.00 | 0.59 | 0.00 | 42 | 1009.2 |
| 20260507134133 | 48 | 285 | 3.5 | 5.2 | 0.00 | 0.59 | 0.00 | 41 | 1009.1 |
| 20260507134035 | 48 | 267 | 2.6 | 5.2 | 0.00 | 0.59 | 0.00 | 40 | 1009.2 |
| 20260507133843 | 48 | 208 | 2.6 | 7.0 | 0.00 | 0.59 | 0.00 | 40 | 1009.1 |
| 20260507133744 | 48 | 205 | 3.5 | 7.0 | 0.00 | 0.59 | 0.00 | 38 | 1009.1 |
| 20260507133627 | 48 | 161 | 2.6 | 7.0 | 0.00 | 0.59 | 0.00 | 36 | 1009.0 |
| 20260507133549 | 48 | 153 | 2.6 | 7.0 | 0.00 | 0.59 | 0.00 | 36 | 1009.0 |
| 20260507133424 | 48 | 279 | 3.5 | 7.0 | 0.00 | 0.59 | 0.00 | 39 | 1009.1 |
| 20260507133327 | 48 | 218 | 1.7 | 7.0 | 0.00 | 0.59 | 0.00 | 39 | 1009.1 |
| 20260507133249 | 48 | 292 | 1.7 | 7.0 | 0.00 | 0.59 | 0.00 | 39 | 1009.1 |
| 20260507133211 | 47 | 291 | 1.7 | 7.0 | 0.00 | 0.59 | 0.00 | 41 | 1009.0 |
| 20260507133117 | 47 | 101 | 3.5 | 7.0 | 0.00 | 0.59 | 0.00 | 40 | 1009.1 |
| 20260507133043 | 47 | 87 | 4.3 | 7.0 | 0.00 | 0.59 | 0.00 | 40 | 1009.1 |
| 20260507132912 | 48 | 158 | 1.7 | 7.0 | 0.00 | 0.59 | 0.00 | 36 | 1009.1 |
| 20260507132826 | 48 | 223 | 1.7 | 7.0 | 0.00 | 0.59 | 0.00 | 37 | 1009.1 |
| 20260507132636 | 48 | 299 | 2.6 | 7.0 | 0.00 | 0.59 | 0.00 | 35 | 1009.1 |
| 20260507132554 | 48 | 333 | 1.7 | 7.0 | 0.00 | 0.59 | 0.00 | 28 | 1009.1 |
| 20260507132517 | 48 | 294 | 0.9 | 6.1 | 0.00 | 0.59 | 0.00 | 29 | 1009.0 |
| 20260507132346 | 47 | 189 | 2.6 | 7.0 | 0.00 | 0.59 | 0.00 | 28 | 1009.0 |
| 20260507132247 | 47 | 167 | 3.5 | 7.0 | 0.00 | 0.59 | 0.00 | 27 | 1009.0 |
| 20260507132143 | 47 | 183 | 3.5 | 6.1 | 0.00 | 0.59 | 0.00 | 30 | 1009.0 |
| 20260507132105 | 47 | 267 | 3.5 | 5.2 | 0.00 | 0.59 | 0.00 | 30 | 1009.0 |
| 20260507132009 | 47 | 295 | 2.6 | 6.1 | 0.00 | 0.59 | 0.00 | 28 | 1009.0 |
| 20260507131935 | 47 | 324 | 2.6 | 6.1 | 0.00 | 0.59 | 0.00 | 28 | 1009.1 |
| 20260507131754 | 47 | 238 | 3.5 | 7.0 | 0.00 | 0.59 | 0.00 | 28 | 1009.1 |
| 20260507131535 | 47 | 150 | 2.6 | 8.7 | 0.00 | 0.59 | 0.00 | 28 | 1009.2 |
| 20260507131458 | 47 | 241 | 2.6 | 8.7 | 0.00 | 0.59 | 0.00 | 27 | 1009.2 |
| 20260507131404 | 47 | 236 | 3.5 | 8.7 | 0.00 | 0.59 | 0.00 | 29 | 1009.2 |
| 20260507131323 | 47 | 290 | 3.5 | 8.7 | 0.00 | 0.59 | 0.00 | 25 | 1009.2 |
| 20260507131136 | 47 | 313 | 2.6 | 8.7 | 0.00 | 0.59 | 0.00 | 23 | 1009.1 |
| 20260507131031 | 47 | 202 | 2.6 | 8.7 | 0.00 | 0.59 | 0.00 | 24 | 1009.2 |
| 20260507130924 | 47 | 250 | 3.5 | 8.7 | 0.00 | 0.59 | 0.00 | 24 | 1009.2 |
| 20260507130849 | 47 | 212 | 4.3 | 8.7 | 0.00 | 0.59 | 0.00 | 24 | 1009.2 |
| 20260507130721 | 47 | 198 | 3.5 | 8.7 | 0.00 | 0.59 | 0.00 | 16 | 1009.1 |
| 20260507130634 | 47 | 259 | 2.6 | 6.1 | 0.00 | 0.59 | 0.00 | 11 | 1009.1 |
| 20260507130505 | 47 | 277 | 1.7 | 6.1 | 0.00 | 0.59 | 0.00 | 7 | 1009.0 |
| 20260507130427 | 47 | 285 | 0.9 | 6.1 | 0.00 | 0.59 | 0.00 | 3 | 1009.1 |
| 20260507130229 | 47 | 169 | 1.7 | 6.1 | 0.00 | 0.59 | 0.00 | 7 | 1009.0 |
| 20260507130150 | 47 | 268 | 1.7 | 6.1 | 0.00 | 0.59 | 0.00 | 8 | 1009.0 |
| 20260507130034 | 47 | 220 | 3.5 | 6.1 | 0.00 | 0.59 | 0.00 | 11 | 1009.0 |
| 20260507125955 | 47 | 205 | 3.5 | 7.0 | 0.00 | 0.69 | 0.00 | 9 | 1009.1 |
| 20260507125828 | 47 | 225 | 1.7 | 7.0 | 0.00 | 0.69 | 0.00 | 7 | 1009.0 |
| 20260507125755 | 47 | 213 | 2.6 | 7.0 | 0.00 | 0.69 | 0.00 | 11 | 1009.0 |
| 20260507125639 | 46 | 236 | 3.5 | 7.0 | 0.00 | 0.69 | 0.00 | 11 | 1009.1 |
| 20260507125523 | 47 | 283 | 3.5 | 7.0 | 0.00 | 0.69 | 0.00 | 9 | 1009.1 |
| 20260507125444 | 47 | 252 | 3.5 | 7.0 | 0.00 | 0.69 | 0.00 | 5 | 1009.1 |
| 20260507125253 | 47 | 279 | 2.6 | 7.0 | 0.00 | 0.69 | 0.00 | 1 | 1009.1 |
| 20260507125155 | 47 | 234 | 2.6 | 7.0 | 0.00 | 0.69 | 0.00 | 1 | 1009.1 |
| 20260507125119 | 47 | 318 | 1.7 | 6.1 | 0.00 | 0.69 | 0.00 | 1 | 1009.1 |
| 20260507124928 | 46 | 203 | 1.7 | 9.6 | 0.00 | 0.69 | 0.00 | 1 | 1009.1 |
| 20260507124822 | 46 | 223 | 2.6 | 9.6 | 0.00 | 0.69 | 0.00 | 1 | 1009.1 |
| 20260507124748 | 46 | 281 | 1.7 | 9.6 | 0.00 | 0.69 | 0.00 | 1 | 1009.1 |
| 20260507124650 | 46 | 195 | 1.7 | 9.6 | 0.00 | 0.69 | 0.00 | 1 | 1009.1 |
| 20260507124611 | 46 | 236 | 1.7 | 9.6 | 0.00 | 0.69 | 0.00 | 1 | 1009.1 |
| 20260507124545 | 46 | 234 | 2.6 | 9.6 | 0.00 | 0.69 | 0.00 | 1 | 1009.1 |
| 20260507124409 | 46 | 240 | 3.5 | 9.6 | 0.00 | 0.69 | 0.00 | 1 | 1009.2 |
| 20260507124331 | 46 | 244 | 3.5 | 9.6 | 0.00 | 0.69 | 0.00 | 1 | 1009.2 |
| 20260507124211 | 46 | 194 | 3.5 | 7.8 | 0.00 | 0.69 | 0.00 | 1 | 1009.2 |
| 20260507124124 | 46 | 240 | 3.5 | 7.8 | 0.00 | 0.69 | 0.00 | 1 | 1009.1 |
| 20260507123955 | 46 | 304 | 2.6 | 7.8 | 0.00 | 0.69 | 0.00 | 1 | 1009.1 |
| 20260507123856 | 46 | 267 | 1.7 | 7.8 | 0.00 | 0.69 | 0.00 | 1 | 1009.1 |
| 20260507123636 | 46 | 313 | 2.6 | 7.8 | 0.00 | 0.69 | 0.00 | 1 | 1009.1 |
| 20260507123544 | 46 | 279 | 3.5 | 9.6 | 0.00 | 0.69 | 0.00 | 1 | 1009.1 |
| 20260507123426 | 46 | 186 | 2.6 | 9.6 | 0.00 | 0.69 | 0.00 | 1 | 1009.1 |
| 20260507123350 | 46 | 240 | 1.7 | 9.6 | 0.00 | 0.69 | 0.00 | 1 | 1009.1 |
| 20260507123244 | 46 | 248 | 3.5 | 9.6 | 0.00 | 0.69 | 0.00 | 1 | 1009.1 |
| 20260507123204 | 46 | 250 | 3.5 | 9.6 | 0.00 | 0.69 | 0.00 | 1 | 1009.1 |
| 20260507123119 | 46 | 279 | 2.6 | 9.6 | 0.00 | 0.69 | 0.00 | 1 | 1009.1 |
| 20260507122928 | 45 | 304 | 2.6 | 9.6 | 0.00 | 0.69 | 0.00 | 1 | 1009.2 |
| 20260507122824 | 45 | 307 | 4.3 | 9.6 | 0.00 | 0.69 | 0.00 | 1 | 1009.2 |
| 20260507122723 | 45 | 276 | 3.5 | 6.1 | 0.00 | 0.69 | 0.00 | 1 | 1009.2 |
| 20260507122645 | 45 | 192 | 2.6 | 7.0 | 0.00 | 0.69 | 0.00 | 1 | 1009.2 |
| 20260507122455 | 45 | 298 | 1.7 | 6.1 | 0.00 | 0.69 | 0.00 | 1 | 1009.2 |
| 20260507122410 | 45 | 206 | 0.9 | 6.1 | 0.00 | 0.69 | 0.00 | 1 | 1009.2 |
| 20260507122219 | 45 | 219 | 1.7 | 6.1 | 0.00 | 0.69 | 0.00 | 1 | 1009.2 |
| 20260507122142 | 45 | 197 | 1.7 | 6.1 | 0.00 | 0.69 | 0.00 | 1 | 1009.2 |
| 20260507122013 | 45 | 246 | 0.9 | 6.1 | 0.00 | 0.69 | 0.00 | 1 | 1009.3 |
| 20260507121927 | 45 | 246 | 1.7 | 6.1 | 0.00 | 0.69 | 0.00 | 1 | 1009.3 |
| 20260507121739 | 45 | 254 | 2.6 | 6.1 | 0.00 | 0.69 | 0.00 | 1 | 1009.3 |
| 20260507121634 | 44 | 253 | 2.6 | 5.2 | 0.00 | 0.69 | 0.00 | 1 | 1009.2 |
| 20260507121532 | 44 | 210 | 2.6 | 4.3 | 0.00 | 0.69 | 0.00 | 1 | 1009.1 |
| 20260507121432 | 45 | 298 | 1.7 | 4.3 | 0.00 | 0.69 | 0.00 | 1 | 1009.0 |
| 20260507121326 | 44 | 238 | 0.9 | 4.3 | 0.00 | 0.69 | 0.00 | 1 | 1009.1 |
| 20260507121249 | 44 | 288 | 0.9 | 4.3 | 0.00 | 0.69 | 0.00 | 1 | 1009.1 |
| 20260507121204 | 44 | 5 | 0.9 | 4.3 | 0.00 | 0.69 | 0.00 | 1 | 1009.0 |
| 20260507121033 | 44 | 303 | 0.9 | 4.3 | 0.00 | 0.69 | 0.00 | 1 | 1009.1 |
| 20260507120935 | 44 | 296 | 1.7 | 4.3 | 0.00 | 0.69 | 0.00 | 1 | 1009.1 |
| 20260507120735 | 44 | 346 | 0.9 | 5.2 | 0.00 | 0.69 | 0.00 | 1 | 1009.1 |
| 20260507120657 | 44 | 316 | 1.7 | 5.2 | 0.00 | 0.69 | 0.00 | 1 | 1009.1 |
| 20260507120525 | 44 | 302 | 2.6 | 5.2 | 0.00 | 0.69 | 0.00 | 1 | 1009.1 |
| 20260507120449 | 43 | 236 | 3.5 | 5.2 | 0.00 | 0.69 | 0.00 | 1 | 1009.1 |
| 20260507120343 | 43 | 214 | 3.5 | 5.2 | 0.00 | 0.69 | 0.00 | 1 | 1009.0 |
| 20260507120304 | 43 | 178 | 2.6 | 5.2 | 0.00 | 0.69 | 0.00 | 1 | 1009.0 |
| 20260507120218 | 43 | 149 | 2.6 | 5.2 | 0.00 | 0.69 | 0.00 | 1 | 1009.0 |
| 20260507120140 | 43 | 196 | 2.6 | 5.2 | 0.00 | 0.69 | 0.00 | 1 | 1009.0 |
| 20260507120010 | 43 | 198 | 1.7 | 4.3 | 0.00 | 0.69 | 0.00 | 1 | 1009.1 |
| 20260507115924 | 43 | 219 | 2.6 | 4.3 | 0.00 | 0.71 | 0.00 | 1 | 1009.0 |
| 20260507115734 | 43 | 204 | 0.9 | 5.2 | 0.00 | 0.71 | 0.00 | 1 | 1009.0 |
| 20260507115613 | 43 | 50 | 0.9 | 5.2 | 0.00 | 0.71 | 0.00 | 1 | 1009.0 |
| 20260507115528 | 43 | 244 | 1.7 | 5.2 | 0.00 | 0.71 | 0.00 | 1 | 1009.0 |
| 20260507115430 | 43 | 229 | 1.7 | 5.2 | 0.00 | 0.71 | 0.00 | 1 | 1009.1 |
| 20260507115354 | 43 | 234 | 1.7 | 5.2 | 0.00 | 0.71 | 0.00 | 1 | 1009.1 |
| 20260507115256 | 43 | 189 | 2.6 | 5.2 | 0.00 | 0.71 | 0.00 | 1 | 1009.0 |
| 20260507115157 | 44 | 235 | 3.5 | 5.2 | 0.00 | 0.71 | 0.00 | 1 | 1008.9 |
| 20260507115006 | 44 | 204 | 3.5 | 5.2 | 0.00 | 0.71 | 0.00 | 1 | 1008.9 |
| 20260507114921 | 44 | 199 | 2.6 | 4.3 | 0.00 | 0.71 | 0.00 | 1 | 1008.9 |
| 20260507114732 | 44 | 201 | 1.7 | 3.5 | 0.00 | 0.71 | 0.00 | 1 | 1008.9 |
| 20260507114630 | 44 | 217 | 1.7 | 2.6 | 0.00 | 0.71 | 0.00 | 1 | 1008.8 |
| 20260507114554 | 44 | 210 | 1.7 | 2.6 | 0.00 | 0.71 | 0.00 | 1 | 1008.8 |
| 20260507114459 | 44 | 210 | 1.7 | 2.6 | 0.00 | 0.71 | 0.00 | 1 | 1008.8 |
| 20260507114420 | 44 | 210 | 0.9 | 2.6 | 0.00 | 0.71 | 0.00 | 1 | 1008.7 |
| 20260507114249 | 44 | 202 | 0.0 | 0.0 | 0.00 | 0.71 | 0.00 | 1 | 1008.7 |
| 20260507114143 | 44 | 202 | 0.0 | 0.0 | 0.00 | 0.71 | 0.00 | 1 | 1008.7 |
| 20260507114014 | 43 | 202 | 0.0 | 0.0 | 0.00 | 0.71 | 0.00 | 1 | 1008.6 |
| 20260507113936 | 43 | 202 | 0.0 | 2.6 | 0.00 | 0.71 | 0.00 | 1 | 1008.6 |
| 20260507113805 | 43 | 202 | 0.0 | 3.5 | 0.00 | 0.71 | 0.00 | 1 | 1008.6 |
| 20260507113720 | 43 | 202 | 0.0 | 3.5 | 0.00 | 0.71 | 0.00 | 1 | 1008.6 |
| 20260507113529 | 43 | 201 | 0.0 | 3.5 | 0.00 | 0.71 | 0.00 | 1 | 1008.6 |
| 20260507113444 | 43 | 188 | 0.0 | 3.5 | 0.00 | 0.71 | 0.00 | 1 | 1008.6 |
| 20260507113317 | 43 | 171 | 0.0 | 3.5 | 0.00 | 0.71 | 0.00 | 1 | 1008.5 |
| 20260507113239 | 43 | 171 | 0.9 | 3.5 | 0.00 | 0.71 | 0.00 | 1 | 1008.5 |
| 20260507113042 | 43 | 167 | 2.6 | 4.3 | 0.00 | 0.71 | 0.00 | 1 | 1008.5 |
| 20260507113005 | 43 | 175 | 2.6 | 4.3 | 0.00 | 0.71 | 0.00 | 1 | 1008.4 |
| 20260507112904 | 43 | 155 | 1.7 | 4.3 | 0.00 | 0.71 | 0.00 | 1 | 1008.4 |
| 20260507112826 | 43 | 161 | 1.7 | 4.3 | 0.00 | 0.71 | 0.00 | 1 | 1008.4 |
| 20260507112639 | 43 | 153 | 0.0 | 2.6 | 0.00 | 0.71 | 0.00 | 1 | 1008.5 |
| 20260507112532 | 43 | 185 | 0.0 | 2.6 | 0.00 | 0.71 | 0.00 | 1 | 1008.5 |
| 20260507112456 | 43 | 185 | 0.0 | 2.6 | 0.00 | 0.71 | 0.00 | 1 | 1008.5 |
| 20260507112345 | 43 | 185 | 0.9 | 2.6 | 0.00 | 0.71 | 0.00 | 1 | 1008.5 |
| 20260507112307 | 43 | 185 | 0.9 | 3.5 | 0.00 | 0.71 | 0.00 | 1 | 1008.5 |
| 20260507112150 | 43 | 185 | 0.9 | 3.5 | 0.00 | 0.71 | 0.00 | 1 | 1008.5 |
| 20260507112111 | 43 | 185 | 0.9 | 3.5 | 0.00 | 0.71 | 0.00 | 1 | 1008.5 |
| 20260507111921 | 43 | 185 | 1.7 | 3.5 | 0.00 | 0.71 | 0.00 | 1 | 1008.5 |
| 20260507111837 | 43 | 185 | 1.7 | 3.5 | 0.00 | 0.71 | 0.00 | 1 | 1008.5 |
| 20260507111706 | 43 | 150 | 0.9 | 3.5 | 0.00 | 0.71 | 0.00 | 1 | 1008.5 |
| 20260507111628 | 43 | 149 | 1.7 | 3.5 | 0.00 | 0.71 | 0.00 | 1 | 1008.6 |
| 20260507111430 | 43 | 226 | 2.6 | 4.3 | 0.00 | 0.71 | 0.00 | 1 | 1008.4 |
| 20260507111353 | 43 | 181 | 2.6 | 4.3 | 0.00 | 0.71 | 0.00 | 1 | 1008.4 |
| 20260507111237 | 43 | 159 | 2.6 | 4.3 | 0.00 | 0.71 | 0.00 | 1 | 1008.5 |
| 20260507111144 | 43 | 186 | 1.7 | 2.6 | 0.00 | 0.71 | 0.00 | 1 | 1008.5 |
| 20260507111038 | 44 | 178 | 0.9 | 1.7 | 0.00 | 0.71 | 0.00 | 1 | 1008.6 |
| 20260507111001 | 44 | 279 | 0.0 | 1.7 | 0.00 | 0.71 | 0.00 | 1 | 1008.6 |
| 20260507110904 | 43 | 279 | 0.0 | 1.7 | 0.00 | 0.71 | 0.00 | 1 | 1008.6 |
| 20260507110824 | 44 | 279 | 0.9 | 1.7 | 0.00 | 0.71 | 0.00 | 1 | 1008.6 |
| 20260507110654 | 44 | 279 | 0.9 | 1.7 | 0.00 | 0.71 | 0.00 | 1 | 1008.6 |
| 20260507110527 | 44 | 279 | 0.0 | 1.7 | 0.00 | 0.71 | 0.00 | 1 | 1008.6 |
| 20260507110450 | 44 | 279 | 0.0 | 1.7 | 0.00 | 0.71 | 0.00 | 1 | 1008.6 |
| 20260507110354 | 44 | 279 | 0.0 | 2.6 | 0.00 | 0.71 | 0.00 | 1 | 1008.6 |
| 20260507110316 | 44 | 279 | 0.0 | 2.6 | 0.00 | 0.71 | 0.00 | 1 | 1008.5 |
| 20260507110124 | 44 | 279 | 0.0 | 2.6 | 0.00 | 0.71 | 0.00 | 1 | 1008.6 |
| 20260507110027 | 44 | 279 | 0.0 | 2.6 | 0.00 | 0.71 | 0.00 | 1 | 1008.5 |
| 20260507105932 | 44 | 279 | 0.0 | 2.6 | 0.00 | 0.72 | 0.00 | 1 | 1008.5 |
| 20260507105854 | 44 | 279 | 0.9 | 2.6 | 0.00 | 0.72 | 0.00 | 1 | 1008.5 |
| 20260507105816 | 44 | 279 | 0.9 | 2.6 | 0.00 | 0.72 | 0.00 | 1 | 1008.5 |
| 20260507105638 | 44 | 279 | 0.9 | 2.6 | 0.00 | 0.72 | 0.00 | 1 | 1008.5 |
| 20260507105542 | 44 | 279 | 1.7 | 2.6 | 0.00 | 0.72 | 0.00 | 1 | 1008.5 |
| 20260507105425 | 44 | 279 | 0.9 | 2.6 | 0.00 | 0.72 | 0.00 | 1 | 1008.5 |
| 20260507105349 | 44 | 277 | 0.0 | 2.6 | 0.00 | 0.72 | 0.00 | 1 | 1008.5 |
| 20260507105314 | 44 | 273 | 0.0 | 3.5 | 0.00 | 0.72 | 0.00 | 1 | 1008.5 |
| 20260507105116 | 44 | 273 | 1.7 | 3.5 | 0.00 | 0.72 | 0.00 | 1 | 1008.5 |
| 20260507105044 | 44 | 273 | 1.7 | 3.5 | 0.00 | 0.72 | 0.00 | 1 | 1008.5 |
| 20260507104945 | 44 | 227 | 1.7 | 3.5 | 0.00 | 0.72 | 0.00 | 1 | 1008.4 |
| 20260507104829 | 44 | 194 | 1.7 | 3.5 | 0.00 | 0.72 | 0.00 | 1 | 1008.4 |
| 20260507104755 | 44 | 194 | 1.7 | 3.5 | 0.00 | 0.72 | 0.00 | 1 | 1008.4 |
| 20260506214648 | 44 | 350 | 4.3 | 7.8 | 0.02 | 1.10 | 0.95 | 1 | 1007.8 |
| 20260506214548 | 44 | 336 | 4.3 | 7.8 | 0.02 | 1.10 | 0.95 | 1 | 1007.8 |
| 20260506214341 | 44 | 18 | 2.6 | 7.0 | 0.02 | 1.09 | 0.94 | 1 | 1007.8 |
| 20260506214233 | 44 | 360 | 3.5 | 7.0 | 0.02 | 1.09 | 0.94 | 1 | 1007.8 |
| 20260506214155 | 44 | 360 | 4.3 | 7.0 | 0.02 | 1.09 | 0.94 | 1 | 1007.8 |
| 20260506214038 | 44 | 350 | 4.3 | 7.0 | 0.02 | 1.09 | 0.94 | 1 | 1007.8 |
| 20260506213933 | 44 | 323 | 2.6 | 7.8 | 0.02 | 1.09 | 0.94 | 1 | 1007.8 |
| 20260506213827 | 44 | 355 | 2.6 | 7.8 | 0.02 | 1.09 | 0.94 | 1 | 1007.8 |
| 20260506213748 | 44 | 61 | 3.5 | 7.8 | 0.02 | 1.09 | 0.94 | 1 | 1007.8 |
| 20260506213709 | 44 | 327 | 4.3 | 7.8 | 0.03 | 1.09 | 0.94 | 1 | 1007.8 |
| 20260506213613 | 44 | 338 | 4.3 | 8.7 | 0.03 | 1.09 | 0.94 | 1 | 1007.8 |
| 20260506213516 | 44 | 328 | 4.3 | 8.7 | 0.03 | 1.09 | 0.94 | 1 | 1007.8 |
| 20260506213436 | 44 | 333 | 5.2 | 8.7 | 0.03 | 1.09 | 0.94 | 1 | 1007.8 |
| 20260506213305 | 44 | 331 | 4.3 | 9.6 | 0.03 | 1.09 | 0.94 | 1 | 1007.8 |
| 20260506213138 | 44 | 333 | 4.3 | 9.6 | 0.03 | 1.09 | 0.94 | 1 | 1007.8 |
| 20260506213022 | 44 | 338 | 4.3 | 9.6 | 0.03 | 1.09 | 0.94 | 1 | 1007.8 |
| 20260506212944 | 44 | 360 | 4.3 | 9.6 | 0.03 | 1.09 | 0.94 | 1 | 1007.8 |
| 20260506212905 | 44 | 325 | 5.2 | 9.6 | 0.03 | 1.09 | 0.94 | 1 | 1007.7 |
| 20260506212757 | 44 | 355 | 5.2 | 9.6 | 0.03 | 1.09 | 0.94 | 1 | 1007.7 |
| 20260506212638 | 44 | 355 | 4.3 | 9.6 | 0.04 | 1.09 | 0.94 | 1 | 1007.7 |
| 20260506212545 | 44 | 329 | 6.1 | 9.6 | 0.04 | 1.09 | 0.94 | 1 | 1007.7 |
| 20260506212425 | 44 | 360 | 7.0 | 9.6 | 0.04 | 1.09 | 0.94 | 1 | 1007.7 |
| 20260506212348 | 44 | 333 | 6.1 | 9.6 | 0.04 | 1.09 | 0.94 | 1 | 1007.7 |
| 20260506212251 | 44 | 342 | 5.2 | 9.6 | 0.04 | 1.09 | 0.94 | 1 | 1007.7 |
| 20260506212211 | 44 | 333 | 5.2 | 9.6 | 0.04 | 1.09 | 0.94 | 1 | 1007.7 |
| 20260506212041 | 44 | 348 | 5.2 | 8.7 | 0.04 | 1.09 | 0.94 | 1 | 1007.7 |
| 20260506211935 | 44 | 346 | 6.1 | 8.7 | 0.04 | 1.09 | 0.94 | 1 | 1007.7 |
| 20260506211835 | 44 | 355 | 4.3 | 8.7 | 0.05 | 1.09 | 0.94 | 1 | 1007.7 |
| 20260506211734 | 44 | 5 | 3.5 | 8.7 | 0.05 | 1.09 | 0.94 | 1 | 1007.6 |
| 20260506211616 | 44 | 343 | 4.3 | 8.7 | 0.05 | 1.09 | 0.94 | 1 | 1007.6 |
| 20260506211537 | 44 | 335 | 4.3 | 8.7 | 0.05 | 1.09 | 0.94 | 1 | 1007.6 |
| 20260506211323 | 44 | 342 | 6.1 | 9.6 | 0.05 | 1.09 | 0.94 | 1 | 1007.6 |
| 20260506211224 | 44 | 337 | 6.1 | 9.6 | 0.05 | 1.09 | 0.94 | 1 | 1007.5 |
| 20260506211128 | 44 | 344 | 5.2 | 9.6 | 0.05 | 1.09 | 0.94 | 1 | 1007.5 |
| 20260506211049 | 44 | 5 | 5.2 | 9.6 | 0.05 | 1.09 | 0.94 | 1 | 1007.5 |
| 20260506210830 | 44 | 321 | 4.3 | 9.6 | 0.05 | 1.09 | 0.94 | 1 | 1007.5 |
| 20260506210730 | 44 | 5 | 5.2 | 9.6 | 0.05 | 1.09 | 0.94 | 1 | 1007.5 |
| 20260506210634 | 44 | 345 | 6.1 | 9.6 | 0.05 | 1.09 | 0.94 | 1 | 1007.4 |
| 20260506210557 | 44 | 333 | 6.1 | 9.6 | 0.05 | 1.09 | 0.94 | 1 | 1007.4 |
| 20260506210519 | 44 | 333 | 7.0 | 9.6 | 0.05 | 1.09 | 0.94 | 1 | 1007.4 |
| 20260506210326 | 44 | 355 | 5.2 | 10.4 | 0.04 | 1.08 | 0.93 | 1 | 1007.4 |
| 20260506210227 | 44 | 344 | 4.3 | 10.4 | 0.04 | 1.08 | 0.93 | 1 | 1007.4 |
| 20260506210130 | 44 | 355 | 5.2 | 10.4 | 0.04 | 1.08 | 0.93 | 1 | 1007.4 |
| 20260506210051 | 44 | 345 | 5.2 | 10.4 | 0.04 | 1.08 | 0.93 | 1 | 1007.4 |
| 20260506205921 | 44 | 340 | 3.5 | 10.4 | 0.04 | 1.25 | 0.93 | 1 | 1007.4 |
| 20260506205837 | 44 | 348 | 4.3 | 10.4 | 0.04 | 1.25 | 0.93 | 1 | 1007.4 |
| 20260506205704 | 44 | 36 | 7.0 | 10.4 | 0.04 | 1.25 | 0.93 | 1 | 1007.5 |
| 20260506205625 | 44 | 335 | 7.0 | 10.4 | 0.04 | 1.25 | 0.93 | 1 | 1007.5 |
| 20260506205427 | 44 | 317 | 3.5 | 7.0 | 0.04 | 1.25 | 0.93 | 1 | 1007.5 |
| 20260506205349 | 44 | 19 | 2.6 | 7.0 | 0.04 | 1.25 | 0.93 | 1 | 1007.5 |
| 20260506205253 | 44 | 16 | 2.6 | 7.0 | 0.04 | 1.25 | 0.93 | 1 | 1007.6 |
| 20260506205217 | 44 | 355 | 2.6 | 7.8 | 0.04 | 1.25 | 0.93 | 1 | 1007.6 |
| 20260506205045 | 44 | 355 | 3.5 | 7.8 | 0.04 | 1.25 | 0.93 | 1 | 1007.6 |
| 20260506204946 | 44 | 347 | 3.5 | 7.8 | 0.04 | 1.25 | 0.93 | 1 | 1007.6 |
| 20260506204840 | 44 | 337 | 3.5 | 7.8 | 0.04 | 1.25 | 0.93 | 1 | 1007.7 |
| 20260506204802 | 44 | 344 | 3.5 | 7.8 | 0.04 | 1.25 | 0.93 | 1 | 1007.7 |
| 20260506204704 | 44 | 317 | 2.6 | 7.8 | 0.04 | 1.25 | 0.93 | 1 | 1007.7 |
| 20260506204624 | 44 | 329 | 3.5 | 7.8 | 0.04 | 1.25 | 0.93 | 1 | 1007.6 |
| 20260506204427 | 44 | 347 | 5.2 | 7.8 | 0.03 | 1.24 | 0.92 | 1 | 1007.6 |
| 20260506204327 | 44 | 350 | 4.3 | 7.8 | 0.03 | 1.24 | 0.92 | 1 | 1007.6 |
| 20260506204228 | 44 | 355 | 3.5 | 7.8 | 0.03 | 1.24 | 0.92 | 1 | 1007.6 |
| 20260506204135 | 44 | 332 | 5.2 | 7.8 | 0.03 | 1.24 | 0.92 | 1 | 1007.6 |
| 20260506204039 | 44 | 323 | 6.1 | 7.8 | 0.03 | 1.24 | 0.92 | 1 | 1007.6 |
| 20260506203923 | 44 | 319 | 3.5 | 7.8 | 0.03 | 1.24 | 0.92 | 1 | 1007.6 |
| 20260506203845 | 44 | 313 | 3.5 | 7.0 | 0.03 | 1.24 | 0.92 | 1 | 1007.6 |
| 20260506203805 | 44 | 327 | 3.5 | 7.0 | 0.02 | 1.23 | 0.91 | 1 | 1007.6 |
| 20260506203708 | 44 | 315 | 3.5 | 7.0 | 0.02 | 1.23 | 0.91 | 1 | 1007.6 |
| 20260506203629 | 44 | 304 | 2.6 | 7.0 | 0.03 | 1.23 | 0.91 | 1 | 1007.7 |
| 20260506203434 | 44 | 333 | 4.3 | 9.6 | 0.03 | 1.23 | 0.91 | 1 | 1007.7 |
| 20260506203339 | 44 | 329 | 4.3 | 9.6 | 0.03 | 1.23 | 0.91 | 1 | 1007.7 |
| 20260506203222 | 44 | 340 | 3.5 | 9.6 | 0.03 | 1.23 | 0.91 | 1 | 1007.7 |
| 20260506203145 | 44 | 327 | 3.5 | 9.6 | 0.03 | 1.23 | 0.91 | 1 | 1007.7 |
| 20260506203040 | 44 | 330 | 4.3 | 9.6 | 0.03 | 1.23 | 0.91 | 1 | 1007.6 |
| 20260506202924 | 44 | 360 | 5.2 | 10.4 | 0.03 | 1.23 | 0.91 | 1 | 1007.6 |
| 20260506202826 | 44 | 340 | 6.1 | 10.4 | 0.03 | 1.23 | 0.91 | 1 | 1007.6 |
| 20260506202749 | 44 | 309 | 6.1 | 10.4 | 0.03 | 1.23 | 0.91 | 1 | 1007.6 |
| 20260506202651 | 44 | 333 | 5.2 | 10.4 | 0.02 | 1.22 | 0.90 | 1 | 1007.6 |
| 20260506202612 | 44 | 340 | 5.2 | 10.4 | 0.02 | 1.22 | 0.90 | 1 | 1007.6 |
| 20260506202515 | 44 | 315 | 6.1 | 10.4 | 0.02 | 1.22 | 0.90 | 1 | 1007.6 |
| 20260506202420 | 44 | 313 | 7.0 | 10.4 | 0.02 | 1.22 | 0.90 | 1 | 1007.6 |
| 20260506202340 | 44 | 319 | 7.0 | 10.4 | 0.02 | 1.22 | 0.90 | 1 | 1007.6 |
| 20260506202208 | 44 | 343 | 6.1 | 10.4 | 0.02 | 1.22 | 0.90 | 1 | 1007.6 |
| 20260506202121 | 44 | 344 | 4.3 | 10.4 | 0.02 | 1.22 | 0.90 | 1 | 1007.6 |
| 20260506201931 | 44 | 329 | 4.3 | 10.4 | 0.02 | 1.22 | 0.90 | 1 | 1007.6 |
| 20260506201846 | 44 | 323 | 4.3 | 10.4 | 0.01 | 1.21 | 0.89 | 1 | 1007.6 |
| 20260506201715 | 44 | 336 | 5.2 | 10.4 | 0.01 | 1.21 | 0.89 | 1 | 1007.7 |
| 20260506201636 | 44 | 310 | 6.1 | 10.4 | 0.02 | 1.21 | 0.89 | 1 | 1007.6 |
| 20260506201438 | 44 | 323 | 5.2 | 10.4 | 0.02 | 1.21 | 0.89 | 1 | 1007.5 |
| 20260506201346 | 44 | 327 | 6.1 | 10.4 | 0.02 | 1.21 | 0.89 | 1 | 1007.5 |
| 20260506201227 | 44 | 320 | 6.1 | 10.4 | 0.02 | 1.21 | 0.89 | 1 | 1007.6 |
| 20260506201148 | 44 | 326 | 6.1 | 10.4 | 0.02 | 1.21 | 0.89 | 1 | 1007.5 |
| 20260506201031 | 44 | 311 | 7.0 | 10.4 | 0.02 | 1.21 | 0.89 | 1 | 1007.5 |
| 20260506200953 | 45 | 346 | 6.1 | 7.8 | 0.02 | 1.21 | 0.89 | 1 | 1007.5 |
| 20260506200915 | 45 | 344 | 6.1 | 7.8 | 0.03 | 1.21 | 0.89 | 1 | 1007.5 |
| 20260506200818 | 45 | 5 | 4.3 | 7.8 | 0.03 | 1.21 | 0.89 | 1 | 1007.5 |
| 20260506200739 | 45 | 351 | 4.3 | 7.8 | 0.03 | 1.21 | 0.89 | 1 | 1007.5 |
| 20260506200610 | 45 | 349 | 5.2 | 7.8 | 0.03 | 1.21 | 0.89 | 1 | 1007.5 |
| 20260506200526 | 45 | 342 | 4.3 | 7.8 | 0.03 | 1.21 | 0.89 | 1 | 1007.4 |
| 20260506200335 | 45 | 321 | 4.3 | 7.8 | 0.03 | 1.21 | 0.89 | 1 | 1007.5 |
| 20260506200253 | 45 | 310 | 5.2 | 7.8 | 0.03 | 1.21 | 0.89 | 1 | 1007.5 |
| 20260506200123 | 45 | 328 | 5.2 | 7.8 | 0.04 | 1.21 | 0.89 | 1 | 1007.4 |
| 20260506200044 | 45 | 317 | 5.2 | 7.8 | 0.04 | 1.21 | 0.89 | 1 | 1007.4 |
| 20260506195913 | 45 | 327 | 4.3 | 7.8 | 0.04 | 1.27 | 0.89 | 1 | 1007.4 |
| 20260506195828 | 45 | 319 | 5.2 | 7.8 | 0.04 | 1.27 | 0.89 | 1 | 1007.4 |
| 20260506195638 | 45 | 314 | 4.3 | 7.8 | 0.05 | 1.27 | 0.89 | 1 | 1007.3 |
| 20260506195532 | 45 | 308 | 5.2 | 7.8 | 0.05 | 1.27 | 0.89 | 1 | 1007.4 |
| 20260506195426 | 45 | 333 | 4.3 | 7.8 | 0.05 | 1.27 | 0.89 | 1 | 1007.3 |
| 20260506195346 | 45 | 338 | 4.3 | 7.8 | 0.05 | 1.27 | 0.89 | 1 | 1007.3 |
| 20260506195215 | 45 | 313 | 6.1 | 7.8 | 0.05 | 1.27 | 0.89 | 1 | 1007.3 |
| 20260506195134 | 45 | 321 | 6.1 | 7.8 | 0.05 | 1.27 | 0.89 | 1 | 1007.3 |
| 20260506194945 | 45 | 311 | 5.2 | 7.8 | 0.06 | 1.27 | 0.89 | 1 | 1007.3 |
| 20260506194859 | 45 | 321 | 5.2 | 7.8 | 0.06 | 1.27 | 0.89 | 1 | 1007.3 |
| 20260506194717 | 45 | 336 | 4.3 | 8.7 | 0.06 | 1.27 | 0.89 | 1 | 1007.2 |
| 20260506194617 | 45 | 349 | 3.5 | 8.7 | 0.06 | 1.27 | 0.89 | 1 | 1007.4 |
| 20260506194520 | 45 | 344 | 4.3 | 8.7 | 0.06 | 1.27 | 0.89 | 1 | 1007.4 |
| 20260506194442 | 45 | 316 | 5.2 | 8.7 | 0.06 | 1.27 | 0.89 | 1 | 1007.4 |
| 20260506194311 | 45 | 338 | 4.3 | 8.7 | 0.06 | 1.27 | 0.89 | 1 | 1007.3 |
| 20260506194212 | 45 | 325 | 4.3 | 8.7 | 0.06 | 1.27 | 0.89 | 1 | 1007.3 |
| 20260506194054 | 45 | 312 | 4.3 | 8.7 | 0.06 | 1.27 | 0.89 | 1 | 1007.3 |
| 20260506194015 | 45 | 344 | 6.1 | 8.7 | 0.06 | 1.27 | 0.89 | 1 | 1007.3 |
| 20260506193915 | 45 | 313 | 5.2 | 8.7 | 0.06 | 1.27 | 0.89 | 1 | 1007.3 |
| 20260506193821 | 45 | 322 | 4.3 | 8.7 | 0.06 | 1.27 | 0.89 | 1 | 1007.3 |
| 20260506193742 | 45 | 360 | 3.5 | 7.8 | 0.06 | 1.27 | 0.89 | 1 | 1007.3 |
| 20260506193611 | 45 | 315 | 3.5 | 7.8 | 0.06 | 1.26 | 0.88 | 1 | 1007.3 |
| 20260506193525 | 45 | 335 | 4.3 | 7.8 | 0.06 | 1.26 | 0.88 | 1 | 1007.4 |
| 20260506193335 | 45 | 337 | 5.2 | 7.8 | 0.06 | 1.26 | 0.88 | 1 | 1007.4 |
| 20260506193247 | 45 | 329 | 4.3 | 7.8 | 0.06 | 1.26 | 0.88 | 1 | 1007.4 |
| 20260506193116 | 45 | 298 | 4.3 | 7.8 | 0.06 | 1.26 | 0.88 | 1 | 1007.3 |
| 20260506193016 | 45 | 303 | 6.1 | 7.8 | 0.06 | 1.26 | 0.88 | 1 | 1007.4 |
| 20260506192838 | 45 | 321 | 6.1 | 7.8 | 0.06 | 1.26 | 0.88 | 1 | 1007.4 |
| 20260506192759 | 45 | 311 | 3.5 | 7.8 | 0.06 | 1.26 | 0.88 | 1 | 1007.3 |
| 20260506192523 | 45 | 317 | 3.5 | 7.0 | 0.06 | 1.26 | 0.88 | 1 | 1007.4 |
| 20260506192446 | 45 | 317 | 3.5 | 7.0 | 0.06 | 1.26 | 0.88 | 1 | 1007.4 |
| 20260506192348 | 45 | 312 | 4.3 | 7.0 | 0.06 | 1.26 | 0.88 | 1 | 1007.4 |
| 20260506192228 | 45 | 339 | 4.3 | 7.0 | 0.06 | 1.26 | 0.88 | 1 | 1007.3 |
| 20260506192130 | 45 | 317 | 3.5 | 7.0 | 0.06 | 1.26 | 0.88 | 1 | 1007.3 |
| 20260506192052 | 45 | 319 | 3.5 | 5.2 | 0.06 | 1.26 | 0.88 | 1 | 1007.3 |
| 20260506192013 | 45 | 313 | 2.6 | 4.3 | 0.07 | 1.26 | 0.88 | 1 | 1007.3 |
| 20260506191916 | 45 | 323 | 2.6 | 4.3 | 0.07 | 1.26 | 0.88 | 1 | 1007.3 |
| 20260506191837 | 45 | 326 | 2.6 | 4.3 | 0.07 | 1.26 | 0.88 | 1 | 1007.2 |
| 20260506191705 | 45 | 327 | 2.6 | 4.3 | 0.06 | 1.25 | 0.87 | 1 | 1007.2 |
| 20260506191618 | 45 | 334 | 2.6 | 4.3 | 0.06 | 1.25 | 0.87 | 1 | 1007.2 |
| 20260506191451 | 45 | 349 | 1.7 | 4.3 | 0.06 | 1.25 | 0.87 | 1 | 1007.2 |
| 20260506191351 | 45 | 332 | 1.7 | 4.3 | 0.06 | 1.25 | 0.87 | 1 | 1007.2 |
| 20260506191133 | 44 | 341 | 1.7 | 4.3 | 0.06 | 1.25 | 0.87 | 1 | 1007.3 |
| 20260506191056 | 44 | 37 | 1.7 | 4.3 | 0.06 | 1.25 | 0.87 | 1 | 1007.3 |
| 20260506190939 | 44 | 355 | 1.7 | 4.3 | 0.05 | 1.24 | 0.86 | 1 | 1007.2 |
| 20260506190901 | 44 | 355 | 2.6 | 4.3 | 0.05 | 1.24 | 0.86 | 1 | 1007.2 |
| 20260506190816 | 44 | 355 | 2.6 | 4.3 | 0.05 | 1.24 | 0.86 | 1 | 1007.3 |
| 20260506190625 | 44 | 348 | 3.5 | 4.3 | 0.05 | 1.24 | 0.86 | 1 | 1007.2 |
| 20260506190549 | 44 | 343 | 3.5 | 4.3 | 0.05 | 1.24 | 0.86 | 1 | 1007.2 |
| 20260506190447 | 44 | 333 | 3.5 | 4.3 | 0.05 | 1.24 | 0.86 | 1 | 1007.3 |
| 20260506190408 | 44 | 347 | 2.6 | 4.3 | 0.05 | 1.24 | 0.86 | 1 | 1007.3 |
| 20260506190313 | 44 | 326 | 1.7 | 3.5 | 0.04 | 1.23 | 0.85 | 1 | 1007.3 |
| 20260506190233 | 44 | 346 | 1.7 | 3.5 | 0.04 | 1.23 | 0.85 | 1 | 1007.3 |